384 visiteurs
Prévisions de votre ville :
Vigilance : 58 départements 3 départements le 20/09/20 à 03:02 - Voir la carte - Être alerté(e)

Paris Roissy CDG (95380) le 20/09/20 à 04:00 Choisir station

20.0°C 74 % E Rafale 22 km/h
Vit. moyenne 9 km/h

Relevés météo quotidiens pour la station de :

UTC
S: Synop
M: Metar
Loc T°C
(°C)
Td
(°C)
HR
(%)
Vis
(km)
Néb
(octa)
Vent
(km/h)
Pression
(mb)
Précipitations
(mm)
Temps
              MOY
10 min
DIR RAF 1h MESURE VAR SUR 3h    
S 00 h 01h 15.9 9.3 65 - 65 111 1020.3 -2.6/3h 0.0/6h - 0.0/3h -
S 01 h 02h 15.8 9.9 68 - 56 109 1020.3 -2.1/3h 0.0/1h -
S 02 h 03h 16.0 9.6 66 - 63 130 1019.1 -2.0/3h 0.0/1h -
S 03 h 04h 16.1 9.5 65 12 6/8 33 119 1018.8 -1.4/3h 0.0/3h
S 04 h 05h 16.0 9.6 66 - 65 107 1018.0 -2.2/3h 0.0/1h -
S 05 h 06h 15.9 10.0 68 - 65 113 1017.6 -1.5/3h 0.0/1h -
S 06 h 07h 15.9 10.0 68 12 4/8 57 120 1017.1 -1.7/3h 0.0/12h - 0.0/3h - 0.0/24h
S 07 h 08h 15.9 9.8 67 - 35 140 1016.0 -2.0/3h 0.0/1h -
S 08 h 09h 16.3 9.7 65 - 37 126 1015.6 -2.0/3h 0.0/1h -
S 09 h 10h 16.5 9.9 65 - 72 122 1016.3 -0.8/3h 0.0/3h -
S 10 h 11h 16.5 10.1 66 - 61 113 1016.4 +0.4/3h 0.0/1h -
S 11 h 12h 17.2 10.3 64 - 54 106 1015.6 +0.1/3h 0.0/1h -
S 12 h 13h 17.3 10.4 64 12 7/8 30 104 1014.4 -1.8/3h 0.0/6h - 0.0/3h
S 13 h 14h 17.3 10.4 64 - 37 96 1015.4 -0.9/3h 0.0/1h -
S 14 h 15h 16.9 10.5 66 - 28 59 1015.7 +0.1/3h 0.0/1h -
S 15 h 16h 16.0 10.5 70 12 7/8 13 52 1016.7 +2.2/3h 0.0/3h
S 16 h 17h 14.7 10.5 76 - 4 14 1017.2 +1.6/3h 0.0/1h -
S 17 h 18h 13.7 10.1 79 - 7 17 1017.6 +1.7/3h 0.0/1h -
S 18 h 19h 13.6 10.0 79 - 2 13 1018.6 +1.8/3h 0.0/12h - 0.0/3h -
S 19 h 20h 13.7 10.1 79 - 7 11 1019.4 +2.2/3h 0.0/1h -
S 20 h 21h 14.7 9.5 71 - 30 41 1020.0 +2.4/3h 0.0/1h -
S 21 h 22h 13.8 9.4 75 - 9 36 1021.3 +2.6/3h 0.0/3h -
S 22 h 23h 14.4 11.0 80 - 26 44 1021.9 +2.5/3h 0.0/1h -
S 23 h 00h 13.9 11.4 85 - 35 50 1022.4 +2.3/3h 0.0/1h -
evolution des temperatures
cumul des precipitations
vent moyen et rafales
pression atmospherique

Un tiret (-) signifie que les données ne sont pas disponibles.

Passez la souris sur les pictos temps pour avoir plus de précisions. Passez les flèches sur l'icône de la direction du vent pour voir la direction précise en degrés.

Les données de l'heure en cours sont disponibles à partir de H+15 minutes.


S signifie station Synop, plus complète qu'une station Metar (M). Il y a +1h de différence entre l'heure UTC et l'heure légale en hiver et +2h en été.

Td est la mesure du point de rosée.

HR est l'humidité relative/p>

Vis est la visibilité

Néb est la nébulosité du ciel (couverture nuageuse) exprimée en octas (de 0/8 à 8/8).

Vent moy 10 min donne le vent moyen sur les 10 minutes qui précèdent le relevé.

Vent raf 1h donne la rafale maximale mesurée dans l'heure qui précède le relevé.


Les données les plus anciennes remontent à avril 2014.

Les données présentées sur cette page proviennent des stations météo officielles. Les relevés sont effectués aux normes en vigueur (anémomètre à 10m de haut, thermomètre sous abri normalisé à 2m du sol...)

Météo 60 décline toute responsabilité en cas d'absence de données, d'erreurs, de mauvaise utilisation ou interprétation et n'est pas habilité à fournir des certificats intempéries.